• In Moldova, Republic
  • List of Countries
  • For 7 days
  • Water Temperature
  • Satellite Maps
  • Weather Map
  • Weather Widgets
  • user-avatar
    Login

    Hourly Weather Innsbruck

    Today, 21 October, Saturday

    Time Temperature Precipitation Wind Pressure Humidity
    00:00 +3°C° 0 mm 1 mps 597 mmHg 75%
    01:00 +3°C° 0 mm 1 mps 597 mmHg 73%
    02:00 +3°C° 0 mm 1 mps 596 mmHg 72%
    03:00 +2°C° 0 mm 1 mps 596 mmHg 72%
    04:00 +2°C° 0 mm 1 mps 596 mmHg 71%
    05:00 +2°C° 0 mm 1 mps 596 mmHg 71%
    06:00 +2°C° 0 mm 1 mps 596 mmHg 71%
    07:00 +2°C° 0 mm 1 mps 596 mmHg 71%
    08:00 +5°C° 0 mm 1 mps 597 mmHg 64%
    09:00 +6°C° 0 mm 0 mps 599 mmHg 57%
    10:00 +9°C° 0 mm 0 mps 600 mmHg 50%
    11:00 +10°C° 0 mm 0 mps 600 mmHg 47%
    12:00 +12°C° 0 mm 1 mps 600 mmHg 45%
    13:00 +12°C° 0 mm 1 mps 600 mmHg 43%
    14:00 +12°C° 0 mm 1 mps 599 mmHg 49%
    15:00 +11°C° 0 mm 1 mps 599 mmHg 54%
    16:00 +10°C° 0 mm 1 mps 598 mmHg 60%
    17:00 +8°C° 0 mm 1 mps 598 mmHg 67%
    18:00 +6°C° 0 mm 1 mps 597 mmHg 75%
    19:00 +3°C° 0 mm 0 mps 596 mmHg 83%
    20:00 +4°C° 0 mm 1 mps 596 mmHg 84%
    21:00 +3°C° 0 mm 1 mps 596 mmHg 85%
    22:00 +3°C° 0 mm 1 mps 596 mmHg 85%
    23:00 +3°C° 0.2 mm 1 mps 596 mmHg 87%

    Tomorrow, 22 October, Sunday

    Time Temperature Precipitation Wind Pressure Humidity
    00:00 +2°C° 0.2 mm 1 mps 596 mmHg 89%
    01:00 +2°C° 0.2 mm 1 mps 596 mmHg 91%
    02:00 +2°C° 0.5 mm 1 mps 596 mmHg 92%
    03:00 +2°C° 0.5 mm 1 mps 596 mmHg 93%
    04:00 +2°C° 0.5 mm 1 mps 595 mmHg 94%
    05:00 +2°C° 0.9 mm 1 mps 595 mmHg 94%
    06:00 +1°C° 0.9 mm 2 mps 595 mmHg 94%
    07:00 -1°C° 0.9 mm 2 mps 595 mmHg 95%
    08:00 -1°C° 1.3 mm 2 mps 595 mmHg 93%
    09:00 -1°C° 1.3 mm 2 mps 595 mmHg 92%
    10:00 -1°C° 1.3 mm 2 mps 595 mmHg 91%
    11:00 -1°C° 1.1 mm 2 mps 595 mmHg 90%
    12:00 -1°C° 1.1 mm 2 mps 594 mmHg 89%
    13:00 -2°C° 1.1 mm 2 mps 594 mmHg 89%
    14:00 -2°C° 0.9 mm 3 mps 593 mmHg 89%
    15:00 -2°C° 0.9 mm 3 mps 593 mmHg 90%
    16:00 -4°C° 0.9 mm 3 mps 593 mmHg 91%
    17:00 -4°C° 0.3 mm 3 mps 593 mmHg 91%
    18:00 -5°C° 0.3 mm 3 mps 593 mmHg 92%
    19:00 -4°C° 0.3 mm 2 mps 593 mmHg 92%
    20:00 -4°C° 0.2 mm 2 mps 593 mmHg 93%
    21:00 -5°C° 0.2 mm 2 mps 593 mmHg 93%
    22:00 -5°C° 0.2 mm 2 mps 593 mmHg 93%
    23:00 -5°C° 0.4 mm 2 mps 593 mmHg 93%

    Day after tomorrow, 23 October, Monday

    Time Temperature Precipitation Wind Pressure Humidity
    00:00 -5°C° 0.4 mm 2 mps 594 mmHg 94%
    01:00 -5°C° 0.4 mm 2 mps 594 mmHg 94%
    02:00 -6°C° 0.3 mm 2 mps 593 mmHg 94%
    03:00 -6°C° 0.3 mm 2 mps 593 mmHg 94%
    04:00 -6°C° 0.3 mm 2 mps 593 mmHg 94%
    05:00 -6°C° 0.4 mm 2 mps 593 mmHg 94%
    06:00 -6°C° 0.4 mm 2 mps 594 mmHg 94%
    07:00 -6°C° 0.4 mm 2 mps 594 mmHg 93%
    08:00 -5°C° 0.7 mm 2 mps 594 mmHg 92%
    09:00 -4°C° 0.7 mm 2 mps 594 mmHg 90%
    10:00 -3°C° 0.7 mm 2 mps 595 mmHg 89%
    11:00 -4°C° 0.6 mm 3 mps 595 mmHg 88%
    12:00 -4°C° 0.6 mm 3 mps 595 mmHg 87%
    13:00 -2°C° 0.6 mm 3 mps 595 mmHg 87%
    14:00 -4°C° 0.5 mm 3 mps 595 mmHg 88%
    15:00 -3°C° 0.5 mm 2 mps 595 mmHg 89%
    16:00 -3°C° 0.5 mm 2 mps 595 mmHg 89%
    17:00 -3°C° 0.9 mm 2 mps 595 mmHg 91%
    18:00 -4°C° 0.9 mm 2 mps 595 mmHg 92%
    19:00 -4°C° 0.9 mm 2 mps 596 mmHg 94%
    20:00 -4°C° 0.9 mm 2 mps 596 mmHg 94%
    21:00 -4°C° 0.9 mm 2 mps 596 mmHg 94%
    22:00 -4°C° 0.9 mm 2 mps 596 mmHg 94%
    23:00 -4°C° 0.6 mm 2 mps 596 mmHg 94%

    24 October, Tuesday

    Time Temperature Precipitation Wind Pressure Humidity
    00:00 -4°C° 0.6 mm 2 mps 597 mmHg 94%
    01:00 -4°C° 0.6 mm 2 mps 597 mmHg 94%
    02:00 -4°C° 0.3 mm 2 mps 597 mmHg 94%
    03:00 -4°C° 0.3 mm 2 mps 597 mmHg 94%
    04:00 -4°C° 0.3 mm 2 mps 597 mmHg 94%
    05:00 -4°C° 0.1 mm 2 mps 597 mmHg 94%
    06:00 -4°C° 0.1 mm 2 mps 597 mmHg 94%
    07:00 -4°C° 0.1 mm 2 mps 597 mmHg 93%
    08:00 -3°C° 0 mm 2 mps 598 mmHg 92%
    09:00 -1°C° 0 mm 2 mps 598 mmHg 92%
    10:00 +1°C° 0 mm 2 mps 599 mmHg 91%
    11:00 +1°C° 0 mm 2 mps 599 mmHg 91%
    12:00 +2°C° 0 mm 2 mps 599 mmHg 90%
    13:00 +3°C° 0 mm 2 mps 599 mmHg 89%
    14:00 +2°C° 0 mm 2 mps 599 mmHg 90%
    15:00 +2°C° 0 mm 2 mps 599 mmHg 91%
    16:00 +2°C° 0 mm 2 mps 599 mmHg 92%
    17:00 +1°C° 0 mm 2 mps 599 mmHg 94%
    18:00 -1°C° 0 mm 2 mps 599 mmHg 95%
    19:00 -2°C° 0 mm 2 mps 599 mmHg 96%
    20:00 -2°C° 0 mm 2 mps 599 mmHg 95%
    21:00 -3°C° 0 mm 2 mps 599 mmHg 95%
    22:00 -3°C° 0 mm 2 mps 599 mmHg 95%
    23:00 -3°C° 0 mm 2 mps 599 mmHg 93%

    25 October, Wednesday

    Time Temperature Precipitation Wind Pressure Humidity
    00:00 -3°C° 0 mm 2 mps 599 mmHg 92%
    01:00 -3°C° 0 mm 2 mps 599 mmHg 90%
    02:00 -3°C° 0 mm 2 mps 599 mmHg 88%
    03:00 -3°C° 0 mm 2 mps 599 mmHg 86%
    04:00 -3°C° 0 mm 2 mps 599 mmHg 84%
    05:00 -3°C° 0 mm 2 mps 599 mmHg 83%
    06:00 -3°C° 0 mm 2 mps 599 mmHg 82%
    07:00 -3°C° 0 mm 2 mps 599 mmHg 82%
    08:00 -1°C° 0 mm 2 mps 600 mmHg 83%
    09:00 +3°C° 0 mm 1 mps 601 mmHg 84%
    10:00 +5°C° 0 mm 1 mps 602 mmHg 85%
    11:00 +6°C° 0 mm 1 mps 602 mmHg 83%
    12:00 +7°C° 0 mm 1 mps 602 mmHg 82%
    13:00 +8°C° 0 mm 1 mps 602 mmHg 81%
    14:00 +7°C° 0 mm 1 mps 602 mmHg 83%
    15:00 +7°C° 0 mm 1 mps 602 mmHg 85%
    16:00 +6°C° 0 mm 1 mps 601 mmHg 87%
    17:00 +5°C° 0 mm 1 mps 601 mmHg 86%
    18:00 +3°C° 0 mm 1 mps 601 mmHg 85%
    19:00 +2°C° 0 mm 1 mps 600 mmHg 84%
    20:00 +1°C° 0 mm 1 mps 600 mmHg 81%
    21:00 +1°C° 0 mm 1 mps 600 mmHg 78%
    22:00 +1°C° 0 mm 1 mps 600 mmHg 75%
    23:00 +1°C° 0 mm 1 mps 600 mmHg 74%

    26 October, Thursday

    Time Temperature Precipitation Wind Pressure Humidity
    00:00 +1°C° 0 mm 1 mps 601 mmHg 72%
    01:00 +1°C° 0 mm 1 mps 601 mmHg 70%
    02:00 +1°C° 0 mm 1 mps 600 mmHg 69%
    03:00 +1°C° 0 mm 1 mps 600 mmHg 68%
    04:00 +1°C° 0 mm 1 mps 600 mmHg 67%
    05:00 +1°C° 0 mm 1 mps 600 mmHg 67%
    06:00 +2°C° 0 mm 1 mps 600 mmHg 67%
    07:00 +2°C° 0 mm 1 mps 600 mmHg 68%
    08:00 +4°C° 0 mm 1 mps 601 mmHg 71%
    09:00 +6°C° 0 mm 1 mps 603 mmHg 74%
    10:00 +7°C° 0 mm 0 mps 604 mmHg 78%
    11:00 +9°C° 0 mm 1 mps 604 mmHg 76%
    12:00 +10°C° 0 mm 1 mps 604 mmHg 75%
    13:00 +11°C° 0 mm 1 mps 604 mmHg 73%
    14:00 +10°C° 0 mm 1 mps 604 mmHg 75%
    15:00 +9°C° 0 mm 1 mps 603 mmHg 78%
    16:00 +8°C° 0 mm 1 mps 603 mmHg 80%
    17:00 +7°C° 0 mm 1 mps 602 mmHg 81%
    18:00 +5°C° 0 mm 1 mps 602 mmHg 82%
    19:00 +4°C° 0 mm 1 mps 601 mmHg 82%
    20:00 +4°C° 0 mm 1 mps 601 mmHg 80%
    21:00 +4°C° 0 mm 1 mps 601 mmHg 79%
    22:00 +3°C° 0 mm 1 mps 601 mmHg 77%
    23:00 +3°C° 0 mm 1 mps 601 mmHg 76%
    Show more